{"data":{"norad_id":45428,"epoch":"2026-05-25T03:02:50.716032Z","epoch_age_seconds":67317,"freshness":"FRESH","line1":"1 45428U 20020E   26145.12697588  .00000418  00000+0  11444-2 0  9999","line2":"2 45428  87.8916  25.6433 0001777  80.1651 279.9678 13.11415047299601","mean_motion":13.11415047,"eccentricity":0.0001777,"inclination_deg":87.8916,"raan_deg":25.6433,"arg_perigee_deg":80.1651,"mean_anomaly_deg":279.9678,"bstar":0.0011444,"rev_number":29960,"period_min":109.80505396016,"perigee_km":1216.34024882,"apogee_km":1219.0398057455,"semimajor_km":7595.8270272827,"source":"CELESTRAK","updated_at":"2026-05-25T13:38:22.341463Z"}}